Date String (YYYY-MM-DD hh:mm:ss) UTC,Instrument flags,Ambient pressure (hPa),Sample flow (lpm),Bypass flow (lpm),Sample temperature (°C),Ambient temperature (°C),ASC tube jacket temperature (°C),LED temperature (°C),Box temperature (°C),Sample RH (%),Span deviation,Mass concentration (μg/m³),Mass concentration (μg/m³),Mass concentration (μg/m³)
DateTimeUTC,F1_M11,P_M11,Q1_M11,Q2_M11,T1_M11,T2_M11,T3_M11,T4_M11,T5_M11,U1_M11,ZSPAN_M11,X2_M11,X0_M11,X1_M11
2022-01-04 15:00:00,,0818.9,5.00,0.00,22.1,21.7,00.0,31.2,23.7,06.8,0000.0,0000.61,0003.29,0000.45
2022-01-04 15:01:00,,0818.9,5.00,0.00,22.1,21.5,00.0,31.1,23.6,07.0,0000.0,0000.60,0003.81,0000.45
2022-01-04 15:02:00,,0818.9,5.00,0.00,22.0,21.4,00.0,31.1,23.6,06.9,0000.0,0000.59,0003.82,0000.44
2022-01-04 15:03:00,,0818.9,4.99,0.00,22.0,21.2,00.0,31.1,23.5,07.0,0000.0,0000.59,0003.84,0000.44
2022-01-04 15:04:00,,0818.8,5.00,0.00,22.0,21.2,00.0,31.1,23.4,07.1,0000.0,0000.58,0003.78,0000.44
2022-01-04 15:05:00,,0818.8,5.00,0.00,21.9,21.1,00.0,31.1,23.4,07.3,0000.0,0000.59,0003.82,0000.44
2022-01-04 15:06:00,,0818.7,4.99,0.00,21.9,21.0,00.0,31.0,23.4,07.1,0000.0,0000.59,0003.22,0000.44
2022-01-04 15:07:00,,0818.8,5.00,0.00,21.9,21.0,00.0,31.0,23.4,06.9,0000.0,0000.60,0002.23,0000.43
2022-01-04 15:08:00,,0818.8,5.00,0.00,21.9,21.7,00.0,31.0,23.6,07.1,0000.0,0000.62,0002.26,0000.44
2022-01-04 15:09:00,,0818.8,5.00,0.00,22.1,22.6,00.0,31.1,23.9,06.9,0000.0,0000.59,0002.18,0000.43
2022-01-04 15:10:00,,0818.9,5.00,0.00,22.2,23.1,00.0,31.1,24.2,07.1,0000.0,0000.58,0002.15,0000.43
2022-01-04 15:11:00,,0818.8,5.00,0.00,22.3,22.8,00.0,31.1,24.1,07.2,0000.0,0000.56,0001.97,0000.43
2022-01-04 15:12:00,,0818.9,5.00,0.00,22.2,22.5,00.0,31.2,24.0,07.1,0000.0,0000.59,0001.72,0000.44
2022-01-04 15:13:00,,0818.9,5.01,0.00,22.2,22.2,00.0,31.2,23.9,07.2,0000.0,0000.61,0001.72,0000.44
2022-01-04 15:14:00,,0818.8,5.00,0.00,22.2,22.0,00.0,31.2,23.8,07.0,0000.0,0000.61,0001.69,0000.45
2022-01-04 15:15:00,,0818.8,5.01,0.00,22.1,21.8,00.0,31.2,23.8,06.9,0000.0,0000.61,0001.71,0000.44
2022-01-04 15:16:00,,0818.9,5.00,0.00,22.1,21.6,00.0,31.1,23.7,07.1,0000.0,0000.59,0001.66,0000.44
2022-01-04 15:17:00,,0818.9,5.00,0.00,22.1,21.5,00.0,31.1,23.6,07.2,0000.0,0000.58,0001.65,0000.44
2022-01-04 15:18:00,,0818.8,4.99,0.00,22.0,21.4,00.0,31.1,23.5,07.2,0000.0,0000.59,0001.67,0000.44
2022-01-04 15:19:00,,0818.8,5.01,0.00,22.0,21.3,00.0,31.1,23.5,06.8,0000.0,0000.57,0001.64,0000.44
2022-01-04 15:20:00,,0818.7,5.02,0.00,22.0,21.2,00.0,31.1,23.5,06.8,0000.0,0000.58,0001.63,0000.44
2022-01-04 15:21:00,,0818.8,4.99,0.00,21.9,21.2,00.0,31.1,23.4,07.0,0000.0,0000.56,0001.58,0000.45
2022-01-04 15:22:00,,0818.8,4.99,0.00,21.9,21.1,00.0,31.1,23.4,07.3,0000.0,0000.54,0001.32,0000.44
2022-01-04 15:23:00,,0818.8,5.02,0.00,21.9,21.4,00.0,31.1,23.5,07.0,0000.0,0000.54,0001.52,0000.44
2022-01-04 15:24:00,,0818.7,4.99,0.00,22.0,22.3,00.0,31.1,23.8,06.8,0000.0,0000.54,0001.59,0000.44
2022-01-04 15:25:00,,0818.7,5.00,0.00,22.2,23.1,00.0,31.1,24.2,06.6,0000.0,0000.55,0002.19,0000.44
2022-01-04 15:26:00,,0818.7,4.99,0.00,22.3,23.1,00.0,31.2,24.2,06.9,0000.0,0000.58,0002.65,0000.45
2022-01-04 15:27:00,,0818.8,5.00,0.00,22.3,22.7,00.0,31.2,24.0,06.7,0000.0,0000.59,0002.65,0000.44
2022-01-04 15:28:00,,0818.8,4.99,0.00,22.2,22.4,00.0,31.2,23.9,07.0,0000.0,0000.60,0002.76,0000.44
2022-01-04 15:29:00,,0818.8,5.00,0.00,22.2,22.2,00.0,31.2,23.9,07.0,0000.0,0000.61,0002.79,0000.44
2022-01-04 15:30:00,,0818.9,5.01,0.00,22.2,22.0,00.0,31.2,23.8,07.0,0000.0,0000.59,0003.09,0000.43
2022-01-04 15:31:00,,0818.9,5.00,0.00,22.2,21.8,00.0,31.2,23.7,07.0,0000.0,0000.61,0003.20,0000.43
2022-01-04 15:32:00,,0818.9,4.99,0.00,22.1,21.6,00.0,31.2,23.7,06.7,0000.0,0000.62,0003.21,0000.43
2022-01-04 15:33:00,,0818.8,5.00,0.00,22.1,21.5,00.0,31.2,23.6,06.8,0000.0,0000.63,0003.23,0000.44
2022-01-04 15:34:00,,0818.6,5.01,0.00,22.0,21.4,00.0,31.1,23.5,06.9,0000.0,0000.62,0002.70,0000.44
2022-01-04 15:35:00,,0818.6,5.00,0.00,22.0,21.3,00.0,31.1,23.5,06.9,0000.0,0000.62,0002.43,0000.44
2022-01-04 15:36:00,,0818.8,5.00,0.00,22.0,21.2,00.0,31.1,23.5,06.6,0000.0,0000.63,0002.07,0000.44
2022-01-04 15:37:00,,0818.8,5.01,0.00,22.0,21.1,00.0,31.1,23.5,07.1,0000.0,0000.60,0001.43,0000.44
2022-01-04 15:38:00,,0818.8,4.99,0.00,21.9,21.1,00.0,31.1,23.4,06.8,0000.0,0000.60,0001.43,0000.44
2022-01-04 15:39:00,,0818.6,5.02,0.00,22.0,21.5,00.0,31.1,23.6,06.8,0000.0,0000.59,0001.35,0000.43
2022-01-04 15:40:00,,0818.7,4.99,0.00,22.1,22.4,00.0,31.1,24.0,07.1,0000.0,0000.62,0001.98,0000.43
2022-01-04 15:41:00,,0818.8,5.00,0.00,22.3,23.3,00.0,31.2,24.3,06.9,0000.0,0000.62,0001.81,0000.44
2022-01-04 15:42:00,,0818.8,5.00,0.00,22.4,23.2,00.0,31.2,24.3,06.5,0000.0,0000.63,0001.84,0000.44
2022-01-04 15:43:00,,0818.9,5.00,0.00,22.4,23.0,00.0,31.2,24.2,07.3,0000.0,0000.63,0002.09,0000.44
2022-01-04 15:44:00,,0818.8,4.99,0.00,22.4,22.7,00.0,31.3,24.2,06.8,0000.0,0000.64,0002.84,0000.45
2022-01-04 15:45:00,,0818.9,5.01,0.00,22.4,22.4,00.0,31.3,24.1,06.4,0000.0,0000.66,0002.87,0000.45
2022-01-04 15:46:00,,0818.9,5.00,0.00,22.4,22.3,00.0,31.3,24.0,06.5,0000.0,0000.64,0002.81,0000.44
2022-01-04 15:47:00,,0818.8,5.00,0.00,22.4,22.1,00.0,31.3,24.0,06.3,0000.0,0000.62,0002.75,0000.44
2022-01-04 15:48:00,,0818.9,5.00,0.00,22.3,22.0,00.0,31.3,24.0,06.5,0000.0,0000.63,0002.75,0000.44
2022-01-04 15:49:00,,0818.9,4.99,0.00,22.3,21.9,00.0,31.3,23.9,07.0,0000.0,0000.62,0002.79,0000.44
2022-01-04 15:50:00,,0818.8,4.99,0.00,22.3,21.8,00.0,31.3,23.9,06.7,0000.0,0000.61,0002.83,0000.44
2022-01-04 15:51:00,,0818.9,5.01,0.00,22.3,21.7,00.0,31.3,24.0,06.3,0000.0,0000.57,0002.19,0000.44
2022-01-04 15:52:00,,0818.9,5.01,0.00,22.3,21.6,00.0,31.3,23.9,06.6,0000.0,0000.56,0001.93,0000.43
2022-01-04 15:53:00,,0818.9,5.00,0.00,22.2,21.5,00.0,31.3,23.8,06.5,0000.0,0000.53,0001.82,0000.42
2022-01-04 15:54:00,,0819.0,5.01,0.00,22.2,21.5,00.0,31.3,23.8,06.6,0000.0,0000.53,0001.65,0000.42
2022-01-04 15:55:00,,0819.1,5.00,0.00,22.2,21.5,00.0,31.3,23.8,06.5,0000.0,0000.52,0000.81,0000.41
2022-01-04 15:56:00,,0819.0,5.01,0.00,22.2,21.5,00.0,31.2,23.8,06.6,0000.0,0000.51,0000.80,0000.41
2022-01-04 15:57:00,,0818.9,4.98,0.00,22.2,21.4,00.0,31.2,23.8,06.4,0000.0,0000.52,0000.86,0000.40
2022-01-04 15:58:00,,0818.9,5.01,0.00,22.2,21.4,00.0,31.2,23.8,06.3,0000.0,0000.52,0000.88,0000.40
2022-01-04 15:59:00,,0819.0,5.00,0.00,22.2,21.4,00.0,31.2,23.7,06.3,0000.0,0000.51,0000.86,0000.39
